Wind_Speed
32 33 31 28 24 23 27 27 24 26 30 29 30 30 29 30 33 33 30 30 29 29 31 29 24 24 23 22 26 25 20 22 27 29 30 31 30 29 31 36 37 36 36 35 33 33 34 34 32 30 30 32 33 34 35 34 33 34 35 33 32 32 33 38 41 39 37 35 35 36 38 39 39 40 41 42 44 46 48 48 49 48 48 48 48 48 48
33 29 29 33 29 24 26 28 25 24 26 27 30 31 30 31 33 33 32 33 34 34 33 31 28 29 30 29 30 27 23 24 28 28 28 31 35 35 33 35 39 40 39 37 34 33 33 33 33 31 31 33 35 35 35 34 34 36 35 32 31 32 35 41 42 40 37 37 37 38 38 39 40 41 42 44 46 48 48 49 49 49 49 49 49 49 49
29 24 25 31 34 30 28 28 27 25 25 28 31 30 29 29 30 31 32 35 39 38 35 35 36 37 38 36 32 26 24 26 28 28 29 30 34 38 39 37 39 40 40 39 35 32 32 33 33 32 32 34 35 33 34 35 35 36 34 31 31 34 38 42 42 39 38 38 39 39 40 40 41 42 44 46 48 49 49 49 50 50 50 49 49 49 49
30 31 31 32 31 30 30 30 29 27 28 31 31 30 29 29 30 33 36 39 40 37 34 36 36 37 39 37 33 30 29 30 30 29 30 32 33 36 40 41 40 39 39 39 36 34 34 35 36 34 32 33 33 32 33 36 37 36 34 32 34 38 40 42 41 39 38 39 40 40 41 42 43 45 46 48 50 50 50 49 50 49 49 50 50 50 49
33 35 33 28 29 33 35 32 28 30 32 30 29 28 28 30 33 36 39 41 40 38 37 38 36 36 38 36 32 31 30 31 32 32 33 35 34 34 35 39 40 39 36 36 35 34 33 34 38 38 31 29 31 32 34 36 36 34 33 35 39 40 41 41 40 39 40 40 41 42 42 43 45 46 48 50 51 51 50 50 49 48 48 50 51 51 49
37 35 33 35 40 43 39 33 33 37 36 30 29 30 28 30 35 38 40 43 43 42 42 42 40 37 34 31 30 31 32 35 37 37 36 35 34 33 34 35 37 37 34 32 33 33 30 29 32 35 31 30 33 33 36 38 35 32 33 37 40 40 40 40 39 40 40 41 42 43 44 45 46 47 49 50 51 50 50 49 47 47 49 50 51 50 49
41 38 37 43 47 44 41 41 42 43 39 31 30 32 31 33 35 37 42 48 47 45 44 43 43 38 34 34 33 31 34 39 40 39 38 35 33 33 32 31 32 33 31 29 30 30 28 26 27 30 32 34 36 37 39 38 34 32 34 37 38 39 40 40 40 40 41 41 42 44 45 46 47 49 50 51 51 50 49 48 47 47 48 48 49 49 49
42 42 41 41 40 39 44 47 41 38 39 35 33 35 37 37 35 35 41 47 45 42 42 44 43 40 40 40 35 31 36 41 40 39 39 35 31 28 27 26 27 28 27 26 27 27 28 29 30 31 32 36 38 39 40 38 34 35 37 38 39 40 40 41 41 41 41 42 43 45 46 48 49 50 51 51 51 51 49 47 46 45 46 47 48 48 48
39 42 40 37 35 35 41 45 40 38 40 39 38 40 40 40 41 41 42 44 40 35 36 40 41 41 43 40 34 33 41 44 40 37 36 34 30 27 26 26 26 26 26 27 26 26 29 32 33 33 34 36 37 37 37 34 34 37 39 39 40 41 40 41 42 41 42 43 44 45 47 48 50 51 51 51 51 51 48 45 43 43 45 46 47 47 47
35 38 37 34 34 34 34 37 38 38 38 36 36 38 37 40 45 46 43 44 43 40 39 40 41 42 42 38 34 36 40 41 39 35 31 31 31 29 29 29 28 27 27 28 28 29 32 34 35 36 35 33 33 34 33 31 33 36 37 38 40 40 41 42 43 42 43 44 45 46 47 48 50 50 51 51 51 50 47 43 42 44 45 46 46 47 46
35 35 34 34 35 34 30 30 31 33 34 34 35 37 37 39 42 43 41 42 44 43 43 42 40 39 37 33 31 34 34 34 37 35 31 31 33 32 32 32 31 29 29 29 30 30 31 34 37 38 34 32 33 33 30 30 33 34 34 36 39 40 41 43 43 43 45 45 45 46 48 49 49 49 50 51 51 50 46 43 43 43 44 45 45 45 45
41 39 37 36 35 33 31 30 29 28 29 29 31 35 37 38 38 38 37 38 40 41 40 40 37 35 34 29 28 32 32 31 35 38 34 32 34 34 34 33 32 31 31 31 32 31 33 36 38 37 35 33 32 30 30 31 33 33 34 38 41 42 42 43 44 45 46 46 46 46 47 48 49 49 50 51 50 48 43 42 43 42 42 43 43 44 46
43 42 41 41 41 40 38 36 32 28 25 26 29 31 33 34 34 34 32 32 35 36 35 35 34 33 34 32 29 32 33 30 34 39 37 33 33 35 36 35 33 32 33 34 34 33 36 37 36 35 35 32 30 30 32 33 32 34 38 41 44 43 42 43 45 45 46 45 44 45 47 48 49 49 49 51 50 46 42 42 42 41 40 41 41 43 44
42 40 40 41 43 45 42 38 35 31 28 29 33 34 33 34 35 35 33 31 33 33 33 34 33 33 35 35 32 33 36 34 35 38 37 34 35 37 38 37 35 34 35 37 36 36 37 37 35 33 31 30 29 31 32 31 32 36 40 42 43 42 41 43 45 44 43 42 43 45 48 48 48 47 48 50 48 44 42 43 43 41 40 40 41 41 40
40 40 40 39 42 46 44 39 37 36 35 35 37 38 38 38 37 37 37 36 35 34 34 34 33 32 34 35 33 33 37 38 37 36 37 38 39 40 40 38 37 35 34 34 35 35 33 32 31 30 29 29 30 31 31 32 35 37 39 41 42 41 41 43 42 41 41 42 45 48 49 48 47 46 46 48 45 42 44 46 46 42 41 41 42 41 39
37 40 41 41 43 45 45 43 42 43 42 40 40 40 40 40 40 41 41 41 40 38 37 36 35 34 35 36 35 33 36 39 40 38 38 40 41 43 43 41 38 34 32 33 34 34 31 29 31 32 30 30 31 31 33 35 37 38 40 41 41 41 42 42 41 40 42 45 48 50 49 49 49 47 46 47 45 45 46 47 45 43 42 42 43 42 40
39 39 41 42 42 40 40 40 41 43 44 44 44 45 43 41 40 39 39 40 40 40 40 40 38 37 37 39 38 36 36 40 42 41 39 41 44 45 45 44 39 33 32 36 37 35 34 34 35 33 30 31 32 33 35 37 38 39 40 41 41 41 41 42 43 43 45 48 50 50 50 51 51 49 47 47 47 47 47 45 44 44 44 43 42 41 41
40 38 38 40 42 41 39 39 39 40 43 45 47 46 44 42 41 40 40 41 41 41 41 41 39 39 39 40 39 36 37 40 43 43 44 44 43 44 46 45 38 32 33 37 37 35 35 35 35 33 33 33 34 34 35 37 38 40 40 41 43 44 43 43 44 47 50 51 51 52 53 53 51 50 49 48 48 47 46 44 44 44 44 43 42 41 41
42 41 40 40 41 41 42 44 45 43 41 40 39 38 38 39 40 41 42 42 41 40 39 40 41 39 39 40 39 38 40 42 42 45 47 45 43 45 46 42 37 32 35 37 36 35 36 36 36 36 36 34 33 35 37 38 39 40 41 42 44 46 46 45 47 52 55 54 55 56 55 52 51 51 50 49 48 47 45 44 44 44 44 43 42 41 40
43 44 44 45 45 44 44 46 47 45 43 41 38 36 36 37 38 39 41 42 42 40 40 41 42 40 41 44 43 42 42 43 42 44 45 45 43 43 41 38 36 36 38 36 35 36 37 37 37 36 34 33 35 39 42 42 42 44 45 46 48 50 50 51 53 56 57 56 56 56 54 54 54 52 50 49 48 46 45 44 44 44 43 42 41 40 39
41 42 42 43 44 45 46 45 44 44 44 42 40 39 39 38 38 38 40 41 41 41 42 43 43 43 44 45 44 43 43 43 43 42 42 42 39 36 36 37 39 40 38 36 36 37 37 38 38 36 35 36 40 44 46 45 46 47 48 49 51 52 53 55 56 56 57 57 56 56 55 55 54 52 50 48 46 45 44 44 44 43 42 41 40 39 38
35 34 36 39 40 42 44 42 40 39 38 37 37 38 39 39 39 40 41 41 41 42 43 44 43 44 45 44 43 43 42 42 42 42 42 41 38 37 39 41 42 41 40 40 40 40 40 41 39 36 36 38 42 45 47 48 48 49 49 51 53 54 56 56 56 56 57 57 57 57 57 54 52 51 49 46 44 44 44 44 43 42 40 39 38 37 36
36 32 32 36 38 38 39 38 37 36 36 36 38 39 40 40 41 41 41 41 41 42 44 44 43 44 46 45 43 43 42 41 43 45 43 42 41 40 41 42 42 43 43 42 41 40 41 41 39 38 39 42 44 47 48 49 50 51 53 54 55 55 55 55 55 56 57 57 57 57 55 53 52 50 47 45 44 44 43 43 42 41 40 38 37 36 35
42 39 37 37 37 36 37 37 38 39 40 40 40 41 41 41 41 40 40 41 43 44 45 44 43 43 45 46 44 44 44 44 46 46 45 43 42 42 42 42 43 42 41 41 41 42 43 42 40 40 43 46 46 48 49 50 51 53 54 54 53 53 54 55 56 56 56 55 55 54 53 52 50 48 46 44 43 42 42 42 41 40 39 38 37 36 35
43 41 39 38 37 37 37 38 39 41 43 44 42 41 40 39 40 41 41 42 43 45 45 45 43 43 45 47 46 46 47 47 46 45 44 43 42 42 43 43 42 41 41 42 44 46 45 43 41 43 46 47 47 49 51 51 51 52 52 52 52 53 54 55 55 54 52 52 53 52 51 49 48 47 45 44 42 41 41 41 40 39 38 37 37 36 35
42 41 40 41 41 41 41 41 41 42 43 43 42 41 39 39 41 43 43 42 43 45 47 48 46 46 47 48 47 46 45 44 44 43 42 43 43 44 45 45 45 44 44 45 46 45 43 41 43 46 48 47 47 49 49 49 49 50 51 52 53 53 53 53 53 51 50 51 51 49 47 46 46 45 44 43 43 42 40 40 40 39 38 37 37 36 34
39 39 40 43 45 46 45 44 43 43 43 44 45 46 45 44 44 45 45 46 45 47 49 50 48 46 47 48 48 47 46 44 45 45 44 43 43 44 46 47 47 47 47 46 44 42 41 43 46 47 46 46 47 47 47 48 49 51 52 52 52 51 51 50 50 49 49 49 48 47 45 45 44 43 42 41 41 41 40 39 39 38 38 38 36 34 33
39 40 42 44 45 46 45 45 45 45 45 46 48 49 49 48 47 46 47 47 46 46 47 50 49 46 45 47 49 48 47 47 47 45 43 43 43 44 47 48 47 46 46 43 42 41 42 44 45 44 43 45 46 46 47 48 49 49 50 50 49 49 49 48 47 47 48 48 47 45 44 43 42 41 40 40 40 40 40 39 39 38 37 36 34 32 32
41 42 43 43 43 44 45 45 46 46 46 46 46 47 47 47 47 47 47 47 47 45 45 48 49 47 45 46 47 47 46 45 44 42 43 44 45 46 49 50 47 44 43 41 41 42 43 43 43 43 43 45 45 45 46 47 47 48 49 49 48 48 48 47 46 46 47 46 43 41 41 41 40 39 39 39 39 39 39 39 39 37 36 35 33 30 29
42 41 40 41 42 44 45 46 46 46 46 46 45 45 46 47 48 48 47 47 47 46 44 45 46 46 45 45 46 45 44 43 42 42 44 45 47 51 55 55 49 45 43 42 41 41 41 41 42 42 43 43 44 45 45 46 47 48 49 49 48 47 46 47 47 46 44 41 39 39 38 38 38 38 38 38 39 39 39 38 37 36 35 33 30 27 26
41 39 39 40 41 42 43 44 45 45 45 46 45 45 45 46 46 46 46 46 46 46 44 44 44 45 45 45 45 44 43 42 43 44 44 46 49 51 51 50 47 45 41 39 40 40 40 39 40 41 42 43 44 45 45 45 46 47 47 46 45 45 46 46 46 43 40 38 37 37 37 37 37 37 37 38 38 38 37 37 36 34 32 30 27 25 24
40 39 39 40 41 41 42 43 43 44 44 44 44 44 44 44 44 45 45 45 45 45 44 44 43 43 43 44 44 44 42 41 42 43 43 45 48 47 46 48 50 46 41 41 43 42 40 38 39 40 42 42 43 44 46 46 44 43 44 44 44 44 46 46 44 41 38 37 37 37 37 37 37 37 38 38 37 37 37 36 35 33 32 30 29 26 24
37 38 39 40 40 41 41 42 42 43 43 43 44 44 44 44 44 44 44 44 44 44 43 43 43 43 43 43 43 43 41 41 41 42 43 45 46 45 46 49 50 46 44 46 45 42 39 39 40 42 44 44 44 47 48 47 45 43 44 45 45 45 46 44 42 39 37 36 37 37 37 37 37 38 38 38 37 36 36 35 34 33 33 31 29 27 26
35 37 39 40 41 41 42 42 42 43 43 43 43 44 44 44 44 44 44 44 44 44 44 43 42 43 44 43 41 40 41 41 43 43 43 45 45 44 45 46 48 46 46 47 44 41 42 43 43 45 45 45 46 48 48 47 46 46 47 48 47 46 45 43 40 38 36 36 36 37 37 37 37 37 37 37 36 35 34 33 32 32 31 30 29 29 30
37 38 39 40 40 41 41 42 42 43 43 43 43 43 44 44 45 45 45 45 44 44 45 44 44 45 45 44 42 41 41 42 43 42 43 45 46 47 47 48 49 49 48 47 45 45 45 45 46 46 45 44 45 47 47 46 45 46 48 49 47 45 44 42 39 38 36 36 36 36 37 37 36 36 36 36 35 34 33 32 31 31 30 30 31 32 32
35 36 37 39 40 41 42 43 43 44 44 44 44 44 45 46 46 46 46 46 46 47 47 45 45 46 47 46 44 42 41 41 42 43 44 45 47 48 49 49 48 47 48 48 47 46 45 46 48 47 46 46 47 47 47 47 45 45 47 48 46 44 43 41 39 37 36 36 36 36 36 35 35 35 35 35 34 33 32 31 31 30 30 30 30 30 30
36 37 39 40 41 42 43 44 44 45 45 46 46 46 47 47 48 48 48 48 47 48 48 47 45 46 47 47 46 44 43 41 41 43 44 45 46 48 50 50 49 49 49 49 48 46 46 47 48 47 47 48 48 47 48 48 46 45 46 46 45 43 41 39 37 36 36 36 35 35 35 35 35 35 35 34 33 32 32 32 31 31 31 31 30 29 30
38 39 40 41 42 43 44 45 46 47 47 48 48 48 48 48 48 48 49 49 49 49 49 48 45 45 45 46 45 44 44 42 42 42 43 43 45 48 49 48 47 47 48 48 48 47 47 47 47 48 48 48 48 48 49 49 47 46 46 45 43 40 37 36 35 35 35 35 35 35 35 35 35 35 35 34 33 32 33 33 32 32 32 32 31 30 30
40 41 42 43 43 44 45 46 47 48 48 49 49 49 49 49 49 49 48 49 50 51 50 47 44 44 44 43 43 44 44 43 42 43 43 43 45 47 47 47 47 48 49 50 49 47 46 47 47 48 48 49 49 50 51 51 50 48 46 43 40 37 35 35 35 35 35 36 35 35 35 35 36 36 35 35 33 32 32 32 33 32 32 32 31 30 30
41 42 43 43 43 44 45 47 48 49 50 50 50 49 49 48 48 48 48 49 51 50 48 46 44 44 43 42 42 43 42 42 42 43 43 44 46 47 48 48 49 50 50 50 48 46 46 47 47 46 47 48 49 48 48 49 47 45 41 39 37 36 35 35 35 36 36 36 36 35 36 36 36 35 35 35 35 32 31 31 32 31 31 31 30 29 29
41 42 43 44 45 46 48 49 50 50 50 49 48 48 48 47 46 45 46 49 51 49 46 44 43 43 42 42 42 41 42 42 42 43 43 44 45 46 46 47 48 48 48 48 47 46 46 45 44 43 43 43 43 42 42 41 40 38 37 36 35 35 36 36 36 37 37 37 36 36 36 37 37 36 35 35 35 33 31 31 31 30 29 30 29 28 28
40 42 44 45 47 48 49 50 51 51 50 50 50 50 48 46 45 45 45 47 48 46 43 41 40 40 40 40 40 40 40 40 40 41 42 43 43 44 45 45 45 46 46 46 46 46 45 42 40 40 40 40 40 38 37 35 35 35 36 35 35 35 36 36 37 37 37 37 36 36 36 37 37 36 35 34 35 33 32 31 30 29 29 29 28 28 29
39 41 43 45 47 49 50 51 51 51 52 52 52 50 48 47 48 46 44 42 41 39 37 36 36 36 36 37 36 36 37 38 38 39 39 39 39 41 41 40 40 40 40 40 40 40 39 37 37 38 40 40 39 37 36 35 35 35 35 35 35 35 35 36 36 37 37 36 36 37 36 35 35 35 34 34 33 32 30 29 29 29 29 29 28 29 29
36 39 41 43 45 46 46 46 46 47 47 47 46 45 44 42 40 37 34 33 34 33 31 30 30 30 30 31 32 32 33 34 35 35 35 35 34 34 34 33 33 33 33 33 33 33 33 34 36 38 39 39 38 37 36 35 34 34 34 34 35 35 35 35 35 36 36 37 36 36 36 34 33 33 33 33 31 29 29 28 28 28 28 29 29 29 29
32 33 33 32 30 29 29 29 29 29 28 27 29 30 28 25 23 24 25 27 28 28 26 25 25 25 26 27 28 29 30 31 31 31 30 30 29 28 27 28 29 29 30 31 31 31 32 33 35 36 37 37 37 37 36 35 34 33 33 33 34 35 36 36 35 34 34 34 34 34 33 32 31 30 29 29 29 28 28 28 28 28 28 28 29 29 30
25 24 23 20 17 16 16 17 16 14 12 13 14 16 16 16 17 19 21 21 21 22 22 22 23 24 24 25 26 26 27 28 28 28 27 26 26 25 25 25 27 29 30 30 31 31 31 32 33 34 35 35 35 34 34 33 32 31 31 32 33 33 34 35 34 32 30 28 28 28 28 28 28 27 27 27 28 28 28 28 28 28 28 28 29 29 28
21 20 18 15 13 12 13 12 12 11 10 10 10 11 12 13 14 15 15 15 16 18 19 20 21 22 23 23 23 24 24 25 25 25 25 25 25 24 24 25 27 28 29 30 30 30 30 31 32 33 33 32 31 31 31 30 29 29 29 31 32 32 32 32 31 28 26 25 24 24 25 26 27 27 27 28 28 28 28 28 28 27 28 28 28 27 26
18 17 16 13 11 9 7 6 6 5 6 6 6 8 11 12 13 13 15 16 17 17 17 18 19 19 20 20 21 22 22 23 23 24 24 25 25 24 23 24 26 27 28 28 28 28 28 30 31 31 31 30 30 30 29 28 27 27 28 30 32 32 32 32 30 28 27 26 26 26 27 27 28 28 28 28 28 28 28 27 27 27 27 27 26 24 22
13 13 13 11 9 7 6 5 4 3 3 4 6 8 10 11 12 12 13 14 14 14 15 15 15 16 17 18 19 20 21 22 23 23 24 25 25 23 22 23 24 26 26 27 26 26 27 29 30 30 31 31 30 30 30 30 29 28 29 31 32 33 34 33 32 31 29 28 28 28 28 28 28 28 28 28 27 27 27 27 27 27 26 25 23 22 20
10 11 11 10 8 7 7 6 5 4 4 4 5 6 7 8 8 8 10 11 11 11 12 13 14 15 17 17 19 20 21 22 23 23 24 25 24 22 20 21 24 26 27 27 26 26 27 29 30 30 31 31 32 32 32 31 30 30 30 30 32 33 34 34 33 32 31 29 29 29 29 28 28 28 28 27 27 27 27 27 27 26 25 23 21 20 18
11 11 10 9 8 8 7 7 6 6 7 7 7 7 7 7 8 9 11 12 12 13 13 15 16 17 17 18 19 20 21 22 23 23 24 25 24 22 21 21 23 26 27 28 27 26 27 28 29 30 31 32 33 34 35 34 34 33 31 30 30 32 33 33 33 32 32 31 30 30 29 28 28 28 28 27 27 27 27 27 26 25 23 21 20 18 17
10 10 10 9 9 9 9 9 9 9 9 10 10 9 9 10 11 12 13 14 15 15 16 17 17 17 18 19 20 21 22 23 24 24 24 25 25 24 22 21 22 24 27 28 28 27 26 27 27 28 30 32 34 35 36 37 37 36 34 32 31 31 32 32 32 31 31 31 31 31 30 29 29 29 28 28 28 27 27 27 26 24 22 20 19 18 17
Wind_Direction
220 204 202 210 216 217 220 226 230 227 222 216 216 223 231 238 243 248 253 256 260 264 266 265 264 263 258 254 261 269 270 266 269 276 283 285 281 281 286 290 292 292 292 290 288 286 285 286 289 291 291 292 292 292 294 298 300 299 300 300 295 291 294 301 306 308 311 314 315 314 313 313 314 315 317 320 320 319 317 315 314 315 315 315 315 315 315
228 220 210 204 207 223 234 234 235 236 234 233 230 227 227 235 243 247 250 253 254 255 258 260 262 262 260 257 262 271 279 277 277 282 287 290 290 290 292 294 294 295 295 293 290 285 284 285 288 289 290 292 293 295 301 303 300 298 297 296 294 294 297 301 305 309 312 314 315 314 314 314 315 316 318 320 319 317 315 315 314 314 315 315 316 315 316
221 229 232 224 216 215 223 232 238 241 239 240 243 243 239 239 243 246 249 254 257 258 259 258 257 258 258 258 262 269 273 274 279 285 286 288 291 293 296 296 295 295 295 293 290 289 287 285 285 287 290 292 295 301 305 301 296 295 295 296 297 295 296 299 303 307 312 314 315 315 315 316 316 317 319 318 316 315 315 314 314 314 314 315 316 316 317
221 220 223 231 231 225 225 229 231 236 239 238 239 244 245 245 246 248 248 249 252 258 263 260 255 255 256 258 262 265 266 270 275 279 282 285 289 292 295 296 295 293 292 292 292 291 288 286 285 284 285 291 298 303 301 295 294 294 294 295 296 292 293 298 303 308 313 315 315 316 316 316 316 317 317 316 315 315 314 314 314 313 315 316 317 317 317
232 224 220 231 240 236 234 232 230 234 239 239 239 241 245 247 250 250 251 251 248 246 250 254 255 256 258 262 267 268 266 269 273 278 284 288 290 292 293 294 293 292 292 291 291 290 291 293 288 278 278 294 303 299 294 293 293 291 289 289 291 292 295 301 307 312 314 315 316 316 315 315 315 315 314 314 314 314 314 315 314 314 316 318 317 317 317
229 227 221 223 228 230 229 224 223 227 229 231 238 242 245 251 254 254 252 252 250 245 244 248 253 257 261 265 271 274 275 276 278 282 286 288 290 292 293 291 289 289 290 290 290 291 295 296 287 274 275 295 303 295 290 291 289 287 287 287 290 295 300 306 310 313 314 315 315 315 314 313 313 312 312 313 313 313 315 317 315 315 317 317 316 316 316
230 233 231 227 226 228 228 223 219 218 218 222 234 238 238 245 253 256 254 252 252 252 252 253 255 260 266 270 273 277 279 279 282 285 288 290 291 291 290 289 285 285 288 288 289 293 295 293 288 281 281 293 297 289 285 285 282 284 291 293 296 300 304 308 311 313 313 313 312 312 311 310 310 310 310 311 312 314 317 317 315 314 315 315 314 314 315
234 238 240 239 236 231 227 226 223 218 218 223 227 225 225 231 239 246 251 252 252 252 254 255 257 264 270 272 277 279 276 277 281 286 289 291 291 290 289 288 286 285 286 286 288 292 293 290 290 290 289 291 292 289 286 282 279 286 294 297 301 304 306 307 310 311 311 310 310 310 308 308 308 308 309 311 312 314 317 316 313 313 314 313 312 314 315
234 236 240 244 247 241 233 231 230 228 228 229 227 223 221 224 228 233 243 250 252 254 257 255 258 266 270 273 277 276 274 277 280 284 289 291 290 290 290 289 288 286 285 286 288 289 288 288 289 290 289 288 290 293 293 283 278 286 294 297 301 304 305 306 308 309 308 307 306 305 305 305 306 307 309 310 311 313 316 313 311 313 313 311 312 313 315
232 234 237 241 244 246 244 241 237 236 239 238 237 238 236 231 230 235 243 250 254 260 263 260 261 267 271 275 279 276 276 281 282 282 286 290 290 290 289 288 287 285 285 287 287 286 287 288 288 286 284 284 287 292 291 280 277 287 295 297 299 303 304 305 306 305 303 302 302 302 302 303 304 306 309 309 310 313 313 310 310 313 313 311 312 314 315
236 235 235 239 243 246 251 253 248 246 248 246 242 244 247 243 240 241 245 248 252 258 262 263 266 269 272 276 280 279 280 285 286 285 284 286 288 289 288 288 286 284 285 285 285 286 286 286 286 284 284 287 287 286 283 278 281 291 297 297 298 300 301 301 301 300 299 299 300 301 301 303 305 307 309 309 310 313 311 309 311 313 311 310 312 314 315
241 244 244 245 248 248 248 254 258 258 257 253 244 242 246 250 251 251 248 247 250 255 261 266 270 274 278 279 280 281 284 288 289 288 286 287 288 288 289 290 288 285 284 283 284 284 281 279 282 285 289 290 283 277 279 284 290 296 298 296 295 295 296 297 296 295 296 297 299 301 302 304 306 308 309 309 310 311 310 309 310 310 309 310 313 315 316
245 249 251 251 252 252 252 254 257 257 256 254 250 248 247 249 252 253 251 250 255 261 267 269 272 278 282 283 281 282 284 286 287 288 289 290 290 291 292 293 290 285 281 280 280 279 276 278 282 286 286 282 274 275 285 293 297 298 296 294 294 295 296 295 294 293 295 297 300 302 304 305 306 308 308 308 309 309 308 308 309 309 309 310 314 316 317
245 246 249 250 250 252 254 253 251 248 245 246 249 250 250 250 251 255 258 258 261 265 266 269 273 278 280 281 283 284 285 284 283 285 288 289 290 291 290 290 288 283 279 278 277 275 276 279 282 284 281 276 278 287 294 296 296 294 293 293 295 296 295 293 292 292 294 299 303 306 306 305 306 307 307 307 308 307 306 308 309 309 309 310 313 313 312
244 243 246 248 249 250 251 249 247 245 242 242 245 248 251 251 251 256 261 262 260 261 264 270 275 277 276 279 282 285 286 285 283 283 287 288 289 289 287 286 286 284 282 282 281 280 279 278 281 285 284 281 286 293 294 293 294 293 292 293 294 294 293 291 291 292 295 301 306 307 307 306 306 305 305 307 308 305 304 308 309 308 308 309 309 309 308
242 240 241 243 246 249 250 248 246 246 246 247 248 250 252 253 254 258 262 262 262 264 268 271 274 274 276 278 280 281 282 283 283 284 285 285 286 286 286 288 287 283 282 285 285 282 277 277 284 289 287 284 287 289 289 291 292 291 291 293 294 294 294 293 293 294 299 304 307 308 308 307 306 306 306 307 305 302 303 306 307 307 308 308 307 308 308
239 236 237 241 246 249 250 249 247 247 247 249 250 251 253 256 260 263 264 263 266 271 272 273 274 275 275 277 278 278 278 280 282 282 281 283 286 286 287 287 281 275 279 284 284 279 276 281 288 288 285 285 285 285 285 288 289 289 291 294 296 295 296 296 296 299 304 309 310 309 308 308 307 307 307 306 304 302 304 306 306 306 306 307 307 307 307
240 238 238 242 246 249 252 252 251 250 249 249 251 255 257 259 261 263 263 263 267 270 273 275 276 275 275 276 276 276 276 278 280 282 283 285 286 287 288 283 271 267 277 282 282 281 282 285 286 285 284 283 280 279 283 286 288 290 292 296 296 296 299 302 302 304 308 310 309 308 308 308 307 307 306 305 303 303 304 304 304 304 304 305 306 306 306
242 243 244 243 245 248 251 253 254 255 255 255 256 259 259 259 258 259 261 264 266 268 270 273 273 273 275 275 274 276 278 279 283 285 285 286 287 288 287 275 262 268 282 281 279 284 287 286 284 284 285 281 276 280 288 290 290 292 294 295 295 295 298 302 302 304 306 306 306 307 307 306 305 304 304 303 302 303 303 303 303 303 303 304 304 305 306
244 246 247 247 246 246 248 251 255 257 258 259 260 259 258 257 257 260 262 265 267 269 270 271 272 275 277 277 279 281 282 283 285 285 284 287 289 287 278 267 267 282 289 281 277 284 289 288 286 284 283 281 282 289 294 294 295 295 293 292 292 292 295 298 299 301 302 303 304 305 304 303 303 303 303 302 302 302 302 301 301 301 301 302 302 303 306
241 240 242 245 246 247 248 250 253 257 259 262 263 262 261 261 262 262 264 265 267 270 272 273 276 278 278 279 281 282 283 283 284 283 284 289 290 281 271 272 282 290 288 280 279 284 286 286 283 278 277 281 287 292 295 295 294 292 290 289 291 292 295 297 298 300 301 302 303 302 302 302 302 302 301 301 301 301 300 299 299 299 299 300 300 302 307
235 235 240 244 246 248 250 252 254 256 260 263 264 262 263 265 265 264 265 267 270 272 273 274 277 277 277 278 280 281 281 282 282 282 284 287 285 277 273 279 286 287 284 283 283 282 282 283 280 274 274 281 288 291 292 292 291 290 290 291 292 294 296 297 297 299 300 301 300 300 300 300 299 298 299 299 298 297 296 296 296 297 297 297 298 302 306
241 241 246 250 251 252 255 258 259 259 259 259 261 262 263 265 267 268 271 272 272 272 273 273 275 276 277 278 278 278 280 280 281 283 284 284 283 279 278 283 287 285 283 284 282 279 280 283 278 272 275 283 288 289 290 291 292 292 292 293 294 295 295 296 297 298 298 298 299 298 297 296 295 296 296 295 294 293 293 293 294 295 295 296 297 301 305
248 248 252 258 260 260 261 263 264 264 261 259 259 261 263 264 266 268 270 270 270 271 272 273 275 275 277 278 278 278 279 280 281 283 283 282 281 279 278 281 283 281 278 279 279 278 279 278 276 276 282 287 288 288 288 289 290 290 291 293 294 295 295 296 297 297 297 297 297 296 294 294 295 295 293 292 291 291 290 292 292 292 293 294 296 299 302
252 252 254 256 259 261 262 263 264 265 265 264 263 264 266 268 268 267 267 267 268 270 271 272 273 273 274 277 279 279 280 282 283 282 281 281 280 277 277 278 276 273 272 275 277 276 274 273 276 281 285 286 285 286 286 288 289 290 291 293 294 294 294 295 296 297 297 296 295 294 294 294 294 293 292 291 290 290 290 291 291 291 292 293 294 297 300
253 254 254 256 257 258 259 259 260 263 266 269 270 270 269 269 268 267 268 268 270 272 272 272 274 275 276 278 279 280 281 282 282 281 280 280 279 278 278 277 272 268 272 276 275 272 272 273 278 283 284 283 284 285 286 287 289 290 291 293 294 295 295 296 297 297 296 295 294 294 294 293 292 292 292 292 291 290 290 291 292 292 292 292 293 296 298
256 257 258 259 259 258 258 258 261 264 266 269 270 270 270 269 269 270 272 272 273 274 275 276 276 277 278 279 279 280 281 280 279 281 280 278 277 277 279 278 273 271 274 276 273 269 271 276 280 281 281 283 285 285 286 288 290 291 292 293 294 296 296 297 296 296 295 295 295 295 294 293 292 292 292 292 292 292 292 292 292 292 292 292 293 295 296
256 258 258 259 260 262 262 262 263 263 264 265 267 269 271 272 272 273 273 272 273 274 275 276 276 276 277 278 278 280 280 279 281 282 280 278 278 279 279 279 277 274 274 273 270 270 274 279 281 281 283 285 286 287 289 290 291 292 293 294 296 296 296 296 295 295 295 295 296 295 293 293 292 292 292 292 292 293 294 294 294 292 291 292 293 294 294
255 257 259 260 262 263 264 264 264 264 265 266 267 269 270 271 272 272 272 272 273 272 272 274 276 276 276 276 276 278 278 279 280 281 280 282 284 281 280 281 280 274 270 270 270 274 280 283 283 284 286 287 287 290 292 292 292 293 294 295 296 295 295 294 295 294 294 294 295 294 293 293 293 293 293 294 293 294 295 295 295 295 294 293 293 293 293
257 258 261 262 262 263 264 265 266 266 267 268 268 268 269 269 270 271 272 272 273 272 271 271 273 274 274 273 274 275 276 277 277 277 279 281 281 279 280 282 278 269 264 267 273 280 285 286 285 287 289 290 291 292 292 291 291 292 293 294 294 293 293 293 294 294 294 294 294 293 293 293 294 294 294 294 294 295 296 298 298 297 295 294 294 294 293
262 262 262 262 262 263 264 265 266 267 268 268 268 268 268 268 269 270 271 271 271 271 271 270 270 272 273 273 273 273 273 273 274 274 276 279 280 280 283 283 273 264 262 269 278 284 285 284 287 291 292 291 292 291 290 290 292 293 293 293 293 292 292 293 293 293 294 294 292 292 293 294 294 294 293 293 294 295 297 298 297 296 293 292 292 292 289
265 265 263 262 263 263 264 264 265 266 267 267 268 268 268 269 269 269 270 270 271 271 272 271 270 271 271 271 271 271 271 271 273 274 276 278 279 280 283 278 267 261 267 277 282 283 282 283 289 291 289 288 289 289 288 290 292 293 294 294 293 292 292 293 293 293 293 293 293 293 293 294 294 293 293 294 295 296 296 297 295 293 291 289 288 288 286
264 264 264 264 264 264 264 265 265 265 266 266 266 267 268 268 268 269 269 270 270 270 270 270 270 270 270 270 271 272 273 273 273 272 273 275 276 280 282 274 262 261 273 281 282 282 283 285 288 288 285 284 285 286 288 289 290 291 293 293 293 292 291 292 293 292 292 292 292 292 293 293 293 294 294 296 297 296 296 295 294 292 289 286 284 285 288
261 261 262 264 265 265 265 266 266 266 267 267 267 268 268 268 269 269 269 269 269 270 270 270 270 270 270 270 270 271 271 272 272 272 273 275 277 280 278 268 261 266 278 282 282 284 287 287 286 285 285 285 285 286 288 289 289 289 290 291 291 291 290 290 291 292 292 291 291 291 292 293 293 294 295 296 297 296 295 293 292 290 287 285 285 287 290
260 261 263 265 266 268 269 269 269 269 270 270 270 270 270 270 271 270 270 270 270 270 270 271 270 270 270 270 269 269 269 270 271 272 274 274 275 276 274 268 266 272 280 281 282 286 287 285 283 284 285 285 286 288 289 288 288 288 290 290 290 289 288 287 289 290 290 290 290 291 291 292 293 294 295 295 295 294 292 290 288 287 285 285 287 289 290
264 266 267 269 269 270 270 271 271 271 271 271 271 271 271 271 271 271 271 271 270 270 270 270 270 270 271 271 270 269 269 269 270 271 271 272 273 274 274 273 274 277 280 281 283 285 284 283 282 283 284 286 287 288 288 288 288 289 290 290 289 288 287 287 286 287 288 288 289 289 290 290 292 293 293 294 293 292 290 289 287 286 285 286 287 289 290
269 270 270 271 271 271 271 271 271 272 272 272 271 271 271 271 271 271 271 271 270 270 271 270 269 269 270 271 272 272 271 271 271 272 272 273 273 274 274 275 277 279 281 281 282 283 282 282 282 283 285 287 286 286 286 288 288 289 289 289 288 287 287 286 284 284 286 287 287 288 288 289 291 292 292 292 291 291 289 288 288 288 287 287 288 290 290
272 272 272 272 272 272 272 272 272 272 272 272 271 270 270 270 270 270 271 271 271 270 270 270 269 270 271 272 274 274 274 274 274 274 273 274 274 274 276 277 278 280 281 282 282 283 283 283 283 284 285 285 284 284 286 288 287 287 287 287 285 284 284 284 284 284 285 286 286 287 288 289 291 292 292 290 290 290 290 289 289 289 289 289 290 290 290
273 273 273 273 273 273 274 274 273 273 272 272 272 272 271 271 271 271 271 272 271 271 271 272 273 274 275 275 275 276 276 276 276 275 273 272 272 273 275 277 279 281 283 283 284 284 284 283 283 283 283 283 284 285 287 287 285 285 285 284 282 281 282 283 284 285 285 285 286 287 288 289 290 290 289 288 288 288 289 289 290 290 291 291 291 291 291
275 276 276 276 276 276 275 274 273 273 273 273 273 272 272 272 272 272 273 272 272 273 274 275 275 275 275 274 274 273 273 273 272 272 272 272 272 273 274 276 279 281 282 282 283 283 283 283 283 284 285 286 287 288 286 284 283 283 282 280 278 279 282 283 284 284 284 284 286 287 288 289 289 288 288 287 287 287 288 288 288 289 290 290 290 290 290
279 280 280 279 278 277 275 274 273 272 272 272 271 271 272 272 273 275 276 275 273 272 271 271 271 271 271 270 270 270 271 271 272 273 274 275 276 276 277 278 280 281 281 281 282 282 282 283 284 285 285 286 289 291 289 285 281 280 279 278 278 281 283 284 284 284 284 285 287 288 289 288 288 287 287 286 286 287 287 286 286 287 288 288 289 290 290
282 281 281 280 279 277 276 275 273 271 270 270 270 270 272 273 275 275 274 271 268 266 265 266 268 269 270 270 271 272 272 273 274 275 275 275 277 278 278 279 281 281 282 282 282 280 280 281 283 285 285 285 287 289 289 285 279 278 278 279 281 282 284 284 285 285 286 288 289 289 288 288 287 287 286 286 286 286 286 286 287 287 287 288 289 289 289
286 285 284 283 282 281 279 277 275 273 272 271 272 272 272 272 271 269 266 263 263 263 264 265 267 269 270 272 272 273 273 275 275 275 275 276 277 278 279 280 281 282 283 283 281 279 278 280 282 284 284 284 284 284 284 282 281 281 282 283 284 284 285 286 287 288 288 288 288 287 287 287 286 286 285 284 284 284 284 284 284 285 286 287 288 288 288
292 291 290 288 286 284 282 280 278 276 274 272 271 270 268 264 261 258 256 256 259 261 262 264 267 269 271 272 273 273 274 275 275 276 277 278 278 279 280 281 282 284 285 284 282 280 279 280 281 281 282 283 283 284 284 284 285 286 286 287 287 287 286 286 286 286 286 287 286 286 286 285 284 283 283 283 283 283 283 283 283 284 285 287 288 289 291
298 298 296 293 292 292 291 289 285 281 275 271 267 262 254 245 242 243 245 248 254 260 264 265 266 268 269 270 272 273 274 275 276 277 278 278 279 280 281 282 282 283 283 283 283 282 281 280 281 281 282 283 284 285 286 287 288 288 289 289 289 288 287 286 285 284 285 285 285 285 285 284 283 281 281 282 283 284 284 284 285 286 287 288 290 292 293
309 313 309 304 304 308 310 308 301 289 276 267 259 247 231 218 222 234 244 251 257 264 266 265 265 267 270 271 272 273 274 276 277 278 279 280 281 282 283 283 282 281 281 282 283 283 283 283 283 283 283 284 285 287 289 290 291 291 291 289 288 287 286 286 286 287 287 286 284 283 282 281 281 281 281 282 283 283 284 285 286 287 288 290 292 294 295
314 323 325 323 319 314 311 311 308 299 288 278 263 243 230 228 234 245 259 268 270 269 269 269 269 271 272 272 271 272 274 277 279 281 282 283 284 285 285 284 283 282 283 284 285 285 285 285 285 285 286 287 289 290 291 292 292 291 289 287 285 285 284 285 286 287 287 285 282 280 279 279 280 281 281 281 282 282 284 285 286 288 290 292 293 294 294
311 320 327 332 331 326 324 327 324 311 298 282 259 241 242 250 259 268 276 279 277 275 275 275 273 271 271 272 273 276 280 283 285 286 287 288 288 289 288 285 284 284 285 285 285 286 286 287 288 290 293 294 294 294 294 293 291 288 285 283 283 284 284 285 286 286 285 283 282 280 279 280 280 280 280 280 280 281 283 285 286 288 290 292 292 291 291
320 327 335 341 343 342 349 355 346 322 294 274 262 256 257 261 266 272 278 279 277 274 273 273 274 276 278 279 282 286 288 289 290 290 289 289 290 291 289 287 287 287 288 288 290 291 292 292 294 295 296 296 295 294 292 291 288 285 282 281 281 282 283 284 285 285 284 283 281 280 279 279 279 278 278 279 280 282 284 285 286 288 289 289 288 287 286
330 338 347 354 357 357 0 4 2 357 344 320 301 290 280 273 272 276 282 284 283 279 279 282 286 288 288 289 290 291 292 291 291 290 289 289 291 293 293 292 293 293 294 295 296 296 296 296 296 296 296 295 294 293 292 291 288 285 282 280 279 280 281 283 284 285 284 283 281 279 278 277 277 277 277 278 280 281 282 283 285 286 286 285 283 282 282
329 335 340 346 349 350 351 350 347 344 339 333 326 318 308 299 295 295 296 296 295 293 293 295 295 294 294 295 295 294 293 292 292 292 292 293 294 296 297 297 297 297 297 297 298 297 297 297 297 297 297 297 296 295 295 294 292 289 286 283 281 280 280 281 283 283 284 283 281 280 279 278 277 277 277 278 280 280 281 282 283 283 282 279 278 278 280
324 326 328 329 329 328 327 325 322 320 319 317 315 311 305 300 299 300 302 303 301 299 298 298 297 296 295 295 295 295 295 295 294 295 296 296 297 299 300 299 298 297 297 298 299 299 299 299 299 300 300 299 299 299 299 298 296 294 291 288 285 282 282 282 282 282 282 282 281 280 279 278 277 277 278 278 278 279 279 280 280 278 276 273 273 275 278
Height
5865 5866 5868 5871 5873 5875 5876 5877 5879 5880 5880 5880 5881 5882 5885 5886 5884 5883 5883 5883 5883 5883 5882 5881 5882 5880 5879 5878 5876 5876 5878 5879 5878 5877 5876 5875 5875 5875 5875 5873 5872 5872 5872 5872 5873 5872 5870 5869 5868 5867 5864 5862 5860 5858 5858 5858 5857 5855 5854 5853 5852 5851 5851 5851 5850 5849 5847 5844 5842 5840 5838 5837 5836 5834 5833 5831 5829 5826 5824 5821 5818 5816 5813 5810 5808 5805 5802
5862 5863 5865 5866 5868 5871 5873 5874 5875 5877 5878 5879 5878 5879 5881 5882 5882 5882 5882 5880 5880 5880 5880 5880 5879 5876 5875 5874 5873 5873 5875 5876 5875 5875 5875 5873 5871 5870 5871 5871 5869 5867 5867 5867 5867 5867 5866 5865 5864 5862 5860 5858 5855 5854 5854 5854 5852 5850 5849 5849 5848 5847 5847 5846 5846 5844 5841 5839 5837 5835 5834 5833 5831 5830 5828 5826 5824 5822 5819 5816 5813 5810 5808 5805 5803 5799 5797
5859 5862 5864 5865 5864 5865 5868 5871 5872 5873 5875 5877 5877 5877 5878 5878 5879 5880 5880 5877 5876 5876 5876 5876 5874 5871 5870 5869 5870 5872 5873 5873 5873 5872 5872 5871 5869 5866 5866 5867 5866 5865 5863 5862 5863 5863 5861 5860 5859 5857 5855 5852 5851 5851 5851 5849 5846 5844 5844 5845 5844 5843 5843 5843 5842 5840 5837 5834 5833 5831 5829 5828 5827 5825 5823 5822 5819 5817 5814 5811 5808 5805 5803 5800 5797 5794 5791
5854 5857 5859 5861 5862 5863 5863 5865 5868 5871 5873 5874 5874 5875 5875 5875 5876 5876 5875 5874 5873 5873 5872 5869 5868 5867 5865 5865 5867 5870 5870 5870 5870 5869 5868 5868 5868 5866 5862 5861 5861 5861 5860 5859 5859 5859 5856 5855 5853 5851 5849 5847 5847 5848 5846 5842 5839 5839 5840 5842 5842 5840 5839 5839 5838 5835 5832 5830 5828 5827 5825 5824 5822 5821 5819 5817 5814 5811 5809 5806 5803 5800 5797 5795 5792 5790 5787
5848 5851 5855 5858 5858 5857 5857 5860 5864 5868 5869 5870 5871 5871 5872 5873 5872 5871 5870 5868 5868 5868 5866 5863 5862 5862 5861 5862 5864 5866 5866 5866 5866 5865 5865 5864 5864 5863 5861 5858 5855 5856 5856 5855 5853 5852 5852 5850 5847 5843 5842 5844 5844 5843 5839 5835 5833 5835 5838 5840 5839 5837 5835 5834 5832 5828 5826 5825 5823 5822 5821 5820 5818 5817 5815 5812 5809 5806 5803 5801 5798 5795 5792 5789 5787 5784 5782
5841 5844 5849 5850 5847 5845 5849 5854 5858 5861 5863 5866 5867 5868 5870 5871 5868 5865 5864 5862 5860 5860 5860 5859 5858 5857 5858 5860 5861 5862 5862 5861 5860 5861 5861 5861 5860 5859 5858 5856 5853 5851 5852 5851 5848 5847 5848 5847 5844 5842 5842 5842 5841 5837 5832 5829 5830 5833 5836 5836 5835 5832 5830 5828 5826 5823 5821 5820 5819 5818 5817 5816 5814 5813 5811 5808 5804 5801 5798 5795 5792 5789 5787 5784 5781 5779 5777
5836 5839 5841 5840 5838 5841 5845 5847 5848 5852 5856 5858 5860 5862 5865 5866 5863 5859 5855 5853 5854 5854 5854 5855 5854 5854 5856 5857 5858 5860 5859 5856 5855 5856 5856 5856 5856 5855 5854 5853 5850 5849 5848 5847 5845 5844 5844 5843 5842 5842 5843 5840 5836 5831 5827 5827 5831 5833 5834 5833 5831 5828 5825 5822 5820 5819 5818 5817 5816 5815 5814 5812 5811 5808 5806 5803 5799 5796 5793 5790 5787 5784 5782 5779 5776 5774 5772
5832 5833 5834 5833 5834 5839 5841 5840 5844 5850 5851 5850 5850 5851 5853 5856 5855 5852 5848 5846 5848 5850 5850 5850 5851 5851 5851 5852 5855 5857 5854 5850 5851 5853 5852 5851 5852 5851 5850 5849 5847 5845 5845 5844 5843 5841 5840 5838 5837 5838 5838 5834 5829 5827 5827 5830 5832 5832 5831 5829 5826 5823 5819 5817 5816 5815 5814 5814 5813 5811 5810 5808 5806 5804 5801 5799 5794 5791 5788 5786 5783 5780 5777 5774 5771 5768 5766
5828 5828 5829 5830 5832 5834 5835 5836 5841 5844 5843 5842 5843 5843 5845 5847 5846 5844 5843 5842 5843 5847 5847 5847 5847 5847 5847 5849 5852 5852 5848 5845 5848 5850 5848 5846 5846 5846 5845 5845 5843 5842 5841 5840 5840 5839 5836 5833 5833 5832 5830 5827 5826 5827 5828 5830 5830 5829 5827 5824 5819 5816 5814 5813 5812 5812 5811 5811 5810 5808 5807 5804 5802 5799 5796 5793 5790 5786 5784 5781 5778 5776 5773 5770 5767 5764 5760
5823 5824 5825 5827 5827 5828 5829 5832 5835 5837 5837 5838 5839 5839 5840 5842 5840 5840 5842 5841 5841 5842 5842 5842 5843 5843 5843 5845 5847 5846 5843 5841 5842 5844 5844 5842 5841 5841 5841 5840 5839 5839 5837 5836 5836 5835 5833 5830 5828 5824 5822 5823 5825 5826 5826 5826 5827 5826 5823 5818 5814 5812 5810 5809 5809 5809 5808 5807 5806 5804 5803 5800 5797 5794 5791 5788 5785 5782 5779 5777 5774 5771 5768 5765 5763 5760 5756
5818 5820 5822 5822 5823 5825 5826 5826 5828 5831 5833 5834 5835 5834 5834 5835 5836 5838 5840 5840 5838 5837 5836 5837 5839 5839 5840 5842 5841 5839 5839 5839 5836 5837 5839 5838 5837 5836 5836 5836 5836 5835 5834 5832 5832 5831 5830 5827 5823 5818 5819 5822 5823 5823 5823 5824 5823 5821 5818 5814 5811 5810 5808 5807 5806 5805 5804 5803 5802 5800 5798 5795 5792 5790 5786 5783 5780 5777 5774 5772 5769 5767 5764 5761 5759 5756 5752
5814 5816 5817 5819 5820 5822 5822 5823 5824 5826 5827 5827 5828 5828 5827 5828 5830 5831 5834 5835 5833 5832 5832 5833 5834 5834 5835 5837 5837 5834 5835 5835 5832 5831 5833 5833 5832 5831 5831 5832 5832 5831 5829 5827 5827 5827 5824 5820 5818 5818 5819 5820 5819 5819 5820 5819 5816 5814 5812 5811 5809 5808 5806 5805 5803 5802 5800 5798 5797 5795 5793 5790 5787 5785 5781 5778 5774 5772 5770 5767 5764 5762 5759 5757 5754 5751 5746
5811 5812 5813 5815 5816 5816 5818 5821 5822 5822 5823 5822 5821 5821 5822 5824 5824 5824 5826 5828 5827 5828 5828 5829 5830 5830 5829 5830 5831 5830 5830 5831 5829 5826 5826 5828 5827 5826 5826 5826 5827 5827 5824 5822 5821 5820 5816 5813 5814 5816 5816 5816 5816 5816 5814 5811 5809 5808 5807 5806 5805 5804 5803 5801 5799 5797 5795 5793 5792 5790 5788 5785 5782 5780 5776 5772 5769 5767 5765 5762 5759 5757 5754 5752 5750 5746 5742
5808 5808 5809 5811 5811 5811 5814 5816 5816 5817 5819 5818 5816 5816 5817 5819 5819 5819 5821 5823 5823 5823 5823 5823 5824 5825 5824 5824 5825 5824 5824 5826 5825 5822 5821 5823 5822 5821 5821 5821 5820 5820 5818 5814 5812 5811 5810 5811 5812 5812 5812 5812 5812 5810 5808 5806 5805 5804 5802 5801 5799 5799 5798 5796 5794 5792 5790 5788 5786 5785 5782 5780 5777 5775 5772 5768 5764 5761 5759 5757 5754 5752 5750 5747 5746 5743 5738
5803 5804 5804 5805 5805 5806 5809 5810 5810 5811 5812 5812 5812 5812 5813 5815 5815 5815 5816 5817 5817 5817 5818 5819 5820 5821 5821 5820 5821 5821 5819 5819 5820 5819 5817 5817 5816 5815 5815 5815 5814 5814 5812 5809 5806 5805 5807 5809 5808 5807 5807 5807 5805 5803 5802 5801 5801 5800 5798 5796 5795 5794 5793 5790 5788 5786 5784 5783 5781 5779 5776 5774 5771 5769 5766 5763 5759 5755 5752 5750 5749 5747 5745 5742 5740 5739 5735
5797 5797 5797 5798 5799 5801 5802 5803 5804 5805 5806 5808 5809 5808 5809 5811 5811 5811 5812 5811 5811 5813 5814 5815 5816 5817 5817 5816 5816 5817 5815 5813 5814 5814 5813 5811 5810 5809 5809 5809 5809 5809 5808 5806 5804 5803 5804 5805 5803 5802 5803 5802 5800 5799 5798 5797 5796 5795 5793 5792 5791 5789 5787 5784 5783 5781 5779 5778 5776 5772 5769 5767 5765 5762 5760 5758 5755 5752 5749 5746 5744 5742 5739 5737 5735 5733 5730
5790 5790 5791 5793 5795 5796 5796 5797 5799 5800 5800 5803 5804 5803 5805 5807 5808 5809 5809 5808 5808 5809 5809 5810 5812 5812 5812 5811 5811 5813 5812 5810 5809 5809 5808 5807 5805 5804 5804 5803 5803 5804 5803 5801 5800 5799 5799 5799 5799 5798 5798 5797 5795 5794 5793 5792 5792 5791 5789 5788 5786 5784 5781 5779 5777 5775 5773 5771 5768 5765 5762 5760 5758 5756 5754 5752 5750 5747 5745 5742 5739 5736 5734 5732 5729 5727 5724
5785 5786 5788 5790 5791 5791 5791 5792 5792 5793 5793 5796 5798 5799 5801 5803 5803 5804 5804 5804 5805 5805 5805 5805 5806 5806 5806 5806 5806 5808 5808 5806 5805 5804 5804 5804 5803 5801 5799 5797 5798 5799 5798 5795 5794 5795 5795 5794 5794 5793 5792 5791 5790 5789 5789 5789 5788 5787 5785 5783 5780 5777 5775 5773 5770 5767 5765 5764 5761 5758 5756 5754 5752 5750 5749 5746 5744 5742 5739 5737 5734 5731 5729 5727 5725 5722 5719
5781 5782 5783 5785 5786 5785 5786 5785 5785 5787 5789 5792 5796 5798 5798 5798 5798 5798 5798 5799 5801 5801 5801 5801 5800 5801 5801 5800 5800 5802 5801 5801 5802 5800 5798 5799 5799 5797 5795 5793 5793 5794 5792 5790 5790 5791 5790 5789 5788 5786 5786 5785 5785 5785 5784 5784 5784 5782 5780 5778 5775 5773 5771 5769 5765 5762 5760 5759 5756 5753 5751 5750 5748 5746 5743 5740 5738 5736 5734 5732 5729 5727 5724 5722 5720 5718 5715
5777 5777 5777 5778 5779 5778 5779 5780 5782 5784 5786 5788 5791 5793 5792 5793 5794 5794 5794 5795 5795 5795 5796 5795 5794 5796 5795 5793 5794 5796 5796 5796 5797 5795 5793 5793 5793 5791 5788 5788 5788 5787 5786 5785 5785 5785 5784 5783 5782 5781 5781 5780 5780 5778 5777 5776 5776 5776 5774 5773 5771 5769 5766 5764 5761 5758 5756 5754 5751 5748 5746 5744 5742 5740 5737 5734 5732 5731 5729 5726 5724 5722 5720 5717 5715 5713 5711
5770 5769 5771 5772 5772 5771 5773 5777 5780 5781 5782 5783 5786 5787 5786 5788 5790 5790 5790 5790 5790 5790 5790 5789 5790 5791 5790 5788 5790 5791 5791 5791 5791 5790 5789 5788 5787 5785 5783 5783 5782 5780 5779 5779 5778 5778 5778 5778 5778 5777 5776 5776 5774 5772 5770 5770 5770 5770 5769 5767 5765 5763 5760 5757 5754 5752 5750 5747 5745 5743 5740 5737 5735 5734 5731 5728 5727 5725 5723 5721 5719 5717 5715 5713 5711 5709 5707
5763 5764 5766 5767 5766 5766 5769 5773 5776 5778 5778 5779 5781 5781 5781 5782 5783 5784 5785 5785 5786 5786 5785 5784 5786 5785 5783 5784 5785 5785 5786 5786 5784 5783 5784 5783 5781 5779 5779 5779 5777 5776 5775 5775 5774 5773 5773 5773 5773 5773 5772 5772 5770 5767 5766 5765 5764 5763 5762 5760 5757 5755 5753 5750 5748 5746 5743 5741 5739 5736 5734 5731 5730 5728 5726 5724 5722 5720 5718 5716 5714 5712 5710 5708 5706 5705 5703
5760 5763 5764 5763 5763 5765 5767 5770 5771 5773 5774 5775 5775 5776 5777 5777 5777 5778 5779 5780 5781 5780 5779 5779 5781 5779 5777 5778 5780 5779 5780 5780 5778 5777 5778 5777 5776 5774 5774 5773 5773 5771 5770 5770 5769 5769 5768 5768 5768 5767 5767 5767 5765 5762 5761 5759 5757 5755 5754 5753 5751 5749 5746 5744 5743 5740 5737 5736 5733 5730 5728 5725 5723 5722 5721 5719 5717 5715 5713 5712 5710 5708 5706 5704 5702 5700 5699
5756 5760 5762 5761 5761 5762 5764 5766 5767 5766 5767 5769 5770 5771 5773 5773 5774 5774 5775 5775 5774 5773 5772 5773 5775 5775 5772 5772 5773 5774 5774 5774 5773 5772 5771 5771 5770 5769 5768 5768 5767 5766 5765 5765 5764 5763 5763 5762 5762 5761 5760 5760 5759 5756 5754 5754 5753 5750 5748 5747 5745 5743 5740 5739 5737 5735 5732 5729 5727 5724 5721 5719 5717 5716 5714 5714 5712 5710 5708 5707 5705 5703 5701 5699 5697 5696 5695
5752 5756 5758 5758 5758 5758 5759 5761 5762 5760 5759 5762 5765 5768 5769 5769 5769 5769 5769 5769 5768 5768 5767 5768 5770 5770 5768 5767 5767 5768 5767 5767 5767 5766 5765 5764 5764 5763 5763 5763 5762 5760 5760 5760 5758 5757 5757 5756 5756 5755 5754 5754 5754 5751 5748 5748 5747 5745 5743 5741 5739 5736 5734 5732 5731 5729 5726 5723 5720 5717 5715 5713 5712 5709 5708 5707 5706 5705 5703 5701 5700 5698 5697 5695 5693 5692 5690
5748 5751 5752 5753 5753 5754 5756 5757 5757 5756 5756 5758 5760 5761 5762 5763 5763 5762 5763 5764 5763 5762 5761 5761 5763 5764 5763 5762 5762 5762 5762 5761 5760 5760 5760 5759 5758 5758 5757 5757 5755 5754 5754 5754 5752 5751 5751 5750 5751 5750 5748 5747 5747 5745 5743 5742 5741 5738 5736 5735 5732 5730 5728 5725 5723 5722 5720 5717 5713 5712 5710 5708 5705 5704 5702 5700 5699 5699 5698 5697 5695 5693 5692 5690 5689 5687 5686
5745 5746 5747 5747 5746 5748 5751 5753 5753 5754 5755 5755 5754 5753 5754 5756 5758 5758 5758 5758 5758 5757 5756 5755 5757 5758 5757 5756 5755 5756 5756 5756 5755 5755 5755 5755 5754 5753 5752 5750 5749 5747 5747 5746 5745 5745 5745 5745 5744 5744 5743 5741 5739 5738 5737 5736 5734 5731 5729 5728 5726 5724 5722 5719 5717 5715 5713 5710 5708 5706 5704 5702 5700 5698 5697 5696 5694 5693 5693 5692 5690 5689 5687 5685 5684 5683 5681
5740 5740 5741 5742 5742 5743 5745 5747 5748 5749 5750 5750 5749 5749 5749 5750 5751 5752 5752 5751 5752 5752 5750 5749 5750 5751 5751 5750 5749 5749 5750 5750 5749 5749 5749 5748 5747 5745 5743 5742 5742 5740 5739 5739 5739 5738 5739 5739 5737 5737 5737 5734 5732 5731 5731 5729 5727 5725 5723 5721 5720 5717 5715 5714 5711 5709 5706 5704 5702 5700 5698 5696 5695 5694 5693 5692 5690 5689 5688 5687 5685 5684 5683 5681 5680 5679 5677
5735 5736 5738 5739 5739 5739 5739 5740 5741 5742 5743 5744 5745 5745 5744 5744 5744 5745 5745 5745 5745 5746 5745 5743 5743 5745 5746 5744 5743 5743 5743 5743 5743 5743 5741 5740 5739 5736 5732 5733 5735 5734 5733 5733 5733 5732 5732 5731 5730 5730 5730 5727 5726 5726 5724 5722 5720 5719 5717 5715 5714 5711 5709 5708 5706 5703 5701 5698 5696 5695 5693 5691 5690 5689 5689 5687 5686 5684 5683 5682 5681 5679 5678 5677 5675 5674 5673
5730 5733 5734 5734 5734 5734 5734 5734 5735 5736 5737 5738 5739 5739 5739 5739 5738 5738 5739 5739 5738 5739 5739 5738 5737 5738 5739 5738 5737 5737 5737 5737 5737 5736 5735 5734 5732 5728 5725 5726 5727 5727 5727 5728 5727 5726 5726 5725 5724 5724 5723 5721 5719 5719 5718 5716 5714 5713 5711 5710 5708 5706 5703 5701 5699 5697 5695 5693 5691 5689 5688 5687 5686 5685 5684 5683 5681 5680 5679 5678 5676 5675 5673 5672 5671 5670 5669
5725 5727 5728 5728 5728 5728 5729 5729 5730 5730 5731 5731 5732 5732 5732 5733 5733 5732 5732 5732 5732 5732 5732 5732 5731 5731 5732 5731 5730 5731 5731 5731 5730 5729 5729 5728 5726 5723 5722 5721 5720 5720 5721 5722 5721 5720 5720 5719 5719 5718 5717 5714 5713 5712 5711 5710 5709 5707 5705 5704 5702 5700 5697 5695 5694 5692 5690 5688 5686 5685 5683 5682 5681 5680 5679 5678 5677 5676 5675 5673 5672 5671 5669 5668 5667 5667 5666
5720 5721 5721 5721 5722 5723 5723 5724 5724 5725 5725 5725 5725 5725 5726 5726 5726 5726 5726 5726 5726 5725 5725 5725 5725 5725 5725 5725 5724 5724 5725 5725 5724 5724 5724 5723 5721 5719 5718 5715 5712 5712 5714 5714 5713 5713 5713 5713 5713 5712 5710 5709 5707 5706 5705 5704 5703 5701 5699 5698 5697 5695 5691 5689 5688 5687 5685 5683 5682 5680 5678 5677 5676 5675 5674 5674 5673 5672 5670 5669 5668 5667 5666 5665 5664 5663 5662
5716 5715 5714 5715 5716 5717 5717 5718 5718 5718 5719 5719 5719 5719 5719 5719 5719 5719 5719 5720 5720 5719 5719 5719 5719 5718 5718 5719 5719 5719 5719 5719 5718 5717 5717 5716 5715 5714 5712 5708 5705 5706 5707 5707 5707 5707 5708 5707 5707 5706 5704 5703 5702 5700 5699 5698 5696 5694 5693 5692 5691 5689 5686 5684 5683 5682 5680 5679 5677 5676 5674 5673 5672 5671 5670 5669 5668 5667 5666 5664 5663 5662 5662 5661 5659 5658 5658
5710 5709 5708 5709 5709 5710 5710 5711 5711 5712 5712 5712 5712 5712 5712 5712 5712 5713 5713 5713 5713 5712 5712 5712 5712 5712 5712 5712 5713 5713 5713 5712 5711 5710 5710 5710 5709 5709 5706 5702 5700 5700 5701 5701 5702 5703 5703 5702 5700 5699 5698 5697 5695 5694 5693 5692 5689 5688 5686 5685 5684 5683 5680 5678 5677 5676 5675 5674 5672 5671 5669 5668 5667 5666 5665 5664 5663 5662 5661 5660 5659 5658 5657 5656 5655 5654 5654
5702 5702 5703 5703 5703 5703 5704 5704 5704 5705 5705 5705 5705 5706 5706 5705 5705 5705 5705 5706 5706 5705 5705 5705 5705 5704 5704 5706 5706 5706 5706 5706 5705 5705 5705 5704 5703 5703 5700 5697 5695 5696 5696 5696 5696 5697 5697 5695 5693 5692 5691 5691 5689 5688 5687 5685 5683 5681 5680 5678 5677 5676 5674 5673 5671 5670 5669 5668 5667 5665 5664 5663 5662 5661 5660 5659 5659 5657 5656 5655 5654 5654 5653 5652 5651 5650 5650
5697 5697 5698 5698 5698 5698 5697 5697 5697 5697 5698 5698 5698 5698 5698 5698 5698 5698 5698 5699 5699 5698 5698 5698 5698 5696 5697 5698 5698 5699 5700 5700 5700 5699 5699 5698 5698 5696 5693 5691 5690 5690 5690 5689 5690 5691 5691 5688 5685 5684 5684 5683 5682 5681 5679 5677 5676 5675 5673 5671 5670 5669 5668 5666 5665 5664 5663 5663 5661 5660 5659 5658 5657 5656 5656 5655 5654 5653 5651 5650 5650 5649 5649 5648 5648 5647 5645
5692 5692 5692 5692 5691 5691 5690 5690 5690 5690 5690 5690 5691 5691 5691 5690 5690 5690 5690 5690 5691 5690 5690 5691 5690 5690 5690 5690 5690 5691 5692 5693 5692 5692 5692 5691 5691 5689 5686 5684 5684 5683 5683 5682 5683 5684 5683 5680 5678 5677 5677 5676 5675 5674 5672 5670 5669 5669 5667 5665 5664 5663 5662 5660 5659 5658 5658 5657 5656 5655 5654 5653 5652 5651 5651 5650 5649 5648 5647 5646 5645 5645 5644 5643 5643 5643 5641
5686 5686 5685 5685 5684 5684 5683 5683 5682 5682 5682 5682 5682 5682 5682 5682 5682 5682 5682 5682 5682 5682 5682 5683 5683 5683 5683 5684 5684 5684 5684 5685 5685 5685 5686 5685 5684 5682 5679 5678 5677 5676 5675 5674 5675 5676 5676 5673 5671 5670 5669 5668 5667 5667 5665 5663 5662 5662 5661 5659 5658 5657 5656 5655 5653 5653 5652 5651 5651 5650 5649 5647 5646 5646 5646 5645 5644 5643 5642 5641 5640 5640 5639 5638 5638 5637 5636
5679 5679 5678 5678 5677 5677 5676 5676 5675 5675 5674 5674 5674 5674 5674 5674 5675 5675 5675 5675 5674 5673 5674 5676 5676 5676 5677 5678 5678 5677 5677 5678 5678 5677 5678 5678 5676 5675 5673 5671 5670 5669 5668 5667 5667 5668 5668 5665 5664 5664 5662 5660 5660 5660 5658 5656 5654 5654 5654 5653 5652 5651 5650 5649 5648 5648 5647 5646 5645 5644 5643 5642 5642 5642 5641 5640 5639 5639 5638 5636 5635 5635 5634 5633 5633 5632 5631
5673 5672 5672 5671 5671 5670 5669 5668 5668 5667 5666 5666 5666 5666 5666 5667 5667 5667 5668 5668 5667 5667 5668 5669 5669 5669 5670 5670 5670 5670 5670 5671 5671 5670 5669 5669 5668 5667 5667 5666 5664 5663 5662 5661 5661 5662 5661 5658 5658 5658 5656 5654 5653 5652 5651 5649 5647 5648 5648 5647 5647 5646 5645 5644 5643 5642 5641 5641 5640 5639 5638 5637 5637 5637 5636 5635 5634 5634 5633 5632 5631 5630 5629 5628 5628 5627 5627
5667 5666 5665 5664 5663 5662 5661 5660 5659 5659 5659 5659 5658 5658 5659 5659 5660 5661 5662 5660 5659 5659 5661 5662 5662 5662 5662 5663 5664 5664 5664 5664 5664 5664 5663 5663 5662 5661 5660 5660 5659 5657 5656 5655 5655 5655 5654 5652 5652 5652 5651 5648 5647 5646 5645 5643 5642 5642 5642 5641 5641 5640 5639 5639 5638 5637 5636 5635 5635 5634 5633 5632 5632 5631 5631 5629 5629 5629 5628 5627 5626 5626 5625 5624 5623 5623 5622
5662 5660 5658 5657 5655 5654 5652 5651 5651 5651 5651 5650 5650 5651 5651 5652 5653 5655 5655 5652 5650 5651 5654 5655 5656 5656 5656 5657 5658 5659 5658 5658 5658 5658 5657 5657 5656 5655 5654 5654 5653 5651 5650 5649 5649 5648 5647 5647 5646 5645 5645 5643 5642 5641 5640 5638 5637 5637 5636 5636 5636 5635 5634 5633 5632 5631 5630 5630 5629 5628 5628 5627 5626 5626 5625 5624 5623 5623 5623 5622 5621 5621 5620 5620 5619 5618 5617
5656 5654 5652 5650 5648 5646 5644 5642 5642 5641 5641 5641 5641 5642 5643 5644 5646 5647 5647 5646 5646 5647 5649 5650 5651 5651 5651 5651 5652 5653 5653 5653 5653 5652 5651 5651 5650 5649 5648 5648 5647 5646 5644 5643 5642 5641 5641 5642 5641 5640 5639 5638 5636 5635 5635 5634 5633 5632 5631 5631 5630 5630 5629 5628 5627 5626 5625 5625 5624 5623 5623 5622 5621 5620 5620 5619 5619 5618 5618 5617 5617 5616 5615 5615 5615 5614 5613
5650 5647 5645 5642 5639 5637 5635 5633 5632 5631 5631 5631 5631 5632 5633 5635 5637 5638 5640 5642 5643 5643 5644 5645 5646 5646 5646 5647 5647 5648 5648 5648 5647 5647 5646 5645 5644 5643 5642 5642 5641 5640 5639 5637 5636 5636 5637 5637 5636 5634 5633 5632 5631 5630 5630 5629 5628 5627 5626 5625 5624 5623 5623 5623 5622 5621 5620 5619 5619 5618 5617 5617 5616 5615 5614 5614 5614 5614 5613 5613 5612 5612 5611 5610 5609 5609 5608
5645 5642 5639 5635 5633 5630 5628 5626 5624 5623 5623 5623 5623 5624 5626 5629 5632 5634 5635 5637 5638 5638 5639 5640 5641 5641 5642 5642 5643 5643 5643 5642 5642 5641 5641 5640 5639 5639 5638 5637 5636 5635 5634 5633 5632 5632 5633 5632 5630 5629 5628 5627 5626 5625 5624 5624 5623 5622 5621 5620 5618 5617 5616 5616 5616 5616 5616 5615 5614 5613 5612 5612 5611 5611 5610 5610 5609 5609 5608 5608 5608 5607 5606 5605 5605 5604 5603
5642 5639 5635 5632 5629 5627 5625 5624 5622 5621 5621 5621 5621 5622 5624 5627 5629 5630 5631 5633 5634 5635 5635 5636 5637 5637 5638 5639 5639 5639 5638 5638 5637 5637 5636 5635 5635 5634 5634 5633 5632 5631 5630 5629 5629 5628 5627 5627 5625 5624 5623 5622 5622 5621 5620 5619 5618 5617 5616 5615 5614 5613 5611 5611 5611 5611 5611 5610 5610 5609 5608 5607 5607 5606 5606 5606 5605 5604 5604 5604 5603 5602 5601 5601 5600 5599 5598
5640 5637 5634 5631 5628 5626 5625 5624 5623 5622 5622 5621 5622 5623 5625 5626 5627 5628 5629 5630 5631 5631 5632 5632 5633 5634 5634 5635 5635 5635 5634 5634 5633 5633 5632 5631 5631 5631 5630 5630 5628 5627 5626 5626 5625 5624 5623 5622 5620 5619 5619 5618 5618 5617 5615 5614 5614 5613 5611 5610 5609 5608 5607 5606 5606 5606 5606 5606 5605 5605 5604 5603 5603 5602 5602 5601 5601 5600 5599 5599 5598 5598 5597 5596 5595 5594 5594
5638 5636 5633 5631 5629 5627 5626 5624 5623 5623 5623 5623 5623 5624 5625 5626 5627 5627 5628 5628 5628 5629 5629 5630 5630 5631 5631 5631 5631 5631 5630 5629 5629 5628 5628 5627 5627 5627 5627 5626 5624 5623 5622 5621 5621 5620 5618 5617 5616 5615 5614 5613 5612 5612 5611 5610 5610 5609 5608 5606 5604 5603 5603 5602 5602 5602 5601 5601 5600 5600 5599 5599 5598 5598 5597 5597 5596 5596 5595 5595 5594 5593 5593 5592 5591 5590 5590
5637 5635 5633 5631 5629 5628 5626 5625 5624 5624 5624 5624 5625 5625 5625 5626 5626 5626 5626 5626 5626 5627 5627 5628 5628 5628 5629 5628 5628 5627 5627 5626 5626 5625 5625 5624 5624 5624 5623 5622 5620 5619 5618 5617 5617 5616 5614 5613 5611 5610 5609 5608 5607 5607 5606 5606 5605 5605 5603 5602 5600 5599 5598 5597 5597 5597 5596 5596 5595 5595 5594 5594 5593 5593 5593 5592 5592 5591 5591 5590 5589 5589 5588 5588 5587 5587 5586
5636 5635 5633 5632 5630 5629 5627 5627 5626 5625 5625 5625 5625 5625 5625 5625 5625 5625 5625 5625 5625 5626 5626 5626 5626 5626 5626 5626 5625 5625 5624 5624 5623 5622 5622 5621 5621 5620 5619 5618 5616 5615 5614 5613 5612 5611 5610 5608 5607 5606 5604 5603 5602 5601 5600 5600 5600 5599 5598 5597 5596 5594 5593 5592 5592 5591 5591 5591 5590 5590 5589 5589 5589 5589 5588 5588 5587 5587 5586 5586 5585 5584 5584 5584 5583 5583 5583
5635 5635 5633 5632 5631 5630 5629 5628 5627 5627 5626 5625 5625 5625 5625 5625 5625 5625 5624 5624 5624 5624 5624 5624 5624 5624 5623 5623 5622 5622 5621 5621 5620 5620 5618 5617 5617 5616 5615 5614 5612 5610 5609 5608 5608 5607 5606 5605 5603 5602 5600 5598 5597 5595 5594 5594 5593 5592 5592 5592 5591 5589 5588 5587 5587 5586 5585 5585 5585 5585 5584 5584 5584 5584 5583 5583 5583 5582 5582 5581 5581 5580 5580 5580 5580 5580 5579
5635 5634 5633 5632 5631 5630 5629 5628 5628 5627 5627 5626 5625 5625 5625 5625 5624 5624 5623 5623 5622 5622 5622 5622 5621 5621 5621 5620 5620 5619 5618 5618 5617 5616 5615 5613 5612 5611 5611 5610 5608 5606 5605 5603 5603 5603 5602 5601 5599 5598 5596 5594 5592 5590 5589 5588 5586 5586 5585 5585 5585 5584 5582 5582 5581 5581 5580 5580 5579 5579 5579 5579 5579 5579 5579 5578 5578 5578 5577 5577 5577 5576 5576 5576 5576 5576 5576